Time,TemperatureF,DewpointF,PressureIn,WindDirection,WindDirectionDegrees,WindSpeedMPH,WindSpeedGustMPH,Humidity,HourlyPrecipIn,Conditions,Clouds,dailyrainin,SolarRadiationWatts/m^2,SoftwareType,DateUTC
2013-08-21 00:00:00,70.1,66.4,30.06,WSW,243,0.0,0.0,88,0.00,,,0.00,0,WeatherCatV1.21B27,2013-08-21 04:00:00,
2013-08-21 00:01:00,70.1,66.4,30.06,WSW,243,0.0,0.0,88,0.00,,,0.00,0,WeatherCatV1.21B27,2013-08-21 04:01:00,
2013-08-21 00:02:00,69.9,66.2,30.06,WSW,243,0.0,0.0,88,0.00,,,0.00,0,WeatherCatV1.21B27,2013-08-21 04:02:00,
2013-08-21 00:07:00,70.1,66.4,30.06,WSW,243,0.0,0.0,88,0.00,,,0.00,0,WeatherCatV1.21B27,2013-08-21 04:07:00,
2013-08-21 00:12:00,70.3,66.2,30.06,WSW,243,0.0,0.0,87,0.00,,,0.00,0,WeatherCatV1.21B27,2013-08-21 04:12:00,
2013-08-21 00:17:00,70.6,66.2,30.06,WSW,243,0.0,0.0,86,0.00,,,0.00,0,WeatherCatV1.21B27,2013-08-21 04:17:00,
2013-08-21 00:22:00,70.6,65.9,30.06,WSW,243,0.0,0.0,85,0.00,,,0.00,0,WeatherCatV1.21B27,2013-08-21 04:22:00,
2013-08-21 00:27:00,70.6,65.9,30.06,WSW,243,0.0,0.0,85,0.00,,,0.00,0,WeatherCatV1.21B27,2013-08-21 04:27:00,
2013-08-21 00:32:00,70.6,65.9,30.06,WSW,243,0.0,0.0,85,0.00,,,0.00,0,WeatherCatV1.21B27,2013-08-21 04:32:00,
2013-08-21 00:37:00,70.3,66.2,30.06,WSW,243,0.0,0.0,87,0.00,,,0.00,0,WeatherCatV1.21B27,2013-08-21 04:37:00,
2013-08-21 00:42:00,69.8,66.4,30.06,WSW,243,0.0,0.0,89,0.00,,,0.00,0,WeatherCatV1.21B27,2013-08-21 04:42:00,
2013-08-21 00:47:00,69.6,66.5,30.06,WSW,243,0.0,0.0,90,0.00,,,0.00,0,WeatherCatV1.21B27,2013-08-21 04:47:00,
2013-08-21 00:52:00,69.3,66.6,30.06,WSW,243,0.0,0.0,91,0.00,,,0.00,0,WeatherCatV1.21B27,2013-08-21 04:52:00,
2013-08-21 00:57:00,69.1,66.0,30.06,WSW,243,0.0,0.0,90,0.00,,,0.00,0,WeatherCatV1.21B27,2013-08-21 04:57:00,
2013-08-21 01:02:00,69.1,66.0,30.06,WSW,243,0.0,0.0,90,0.00,,,0.00,0,WeatherCatV1.21B27,2013-08-21 05:02:00,
2013-08-21 01:07:00,68.9,66.2,30.06,WSW,243,0.0,0.0,91,0.00,,,0.00,0,WeatherCatV1.21B27,2013-08-21 05:07:00,
2013-08-21 01:12:00,68.6,65.9,30.06,WSW,243,0.0,0.0,91,0.00,,,0.00,0,WeatherCatV1.21B27,2013-08-21 05:12:00,
2013-08-21 01:17:00,68.6,65.9,30.06,WSW,243,0.0,0.0,91,0.00,,,0.00,0,WeatherCatV1.21B27,2013-08-21 05:17:00,
2013-08-21 01:22:00,68.4,65.7,30.06,WSW,243,0.0,0.0,91,0.00,,,0.00,0,WeatherCatV1.21B27,2013-08-21 05:22:00,
2013-08-21 01:27:00,68.6,65.9,30.06,WSW,243,0.0,0.0,91,0.00,,,0.00,0,WeatherCatV1.21B27,2013-08-21 05:27:00,
2013-08-21 01:32:00,68.9,65.8,30.06,WSW,243,0.0,0.0,90,0.00,,,0.00,0,WeatherCatV1.21B27,2013-08-21 05:32:00,
2013-08-21 01:37:00,68.6,65.9,30.06,WSW,243,0.0,0.0,91,0.00,,,0.00,0,WeatherCatV1.21B27,2013-08-21 05:37:00,
2013-08-21 01:42:00,68.4,65.7,30.06,WSW,243,0.0,0.0,91,0.00,,,0.00,0,WeatherCatV1.21B27,2013-08-21 05:42:00,
2013-08-21 01:47:00,68.4,66.0,30.06,WSW,243,0.0,0.0,92,0.00,,,0.00,0,WeatherCatV1.21B27,2013-08-21 05:47:00,
2013-08-21 01:52:00,68.3,65.9,30.06,WSW,243,0.0,0.0,92,0.00,,,0.00,0,WeatherCatV1.21B27,2013-08-21 05:52:00,
2013-08-21 01:57:00,68.1,65.7,30.06,WSW,243,0.0,0.0,92,0.00,,,0.00,0,WeatherCatV1.21B27,2013-08-21 05:57:00,
2013-08-21 02:02:00,68.1,66.0,30.06,WSW,243,0.0,0.0,93,0.00,,,0.00,0,WeatherCatV1.21B27,2013-08-21 06:02:00,
2013-08-21 02:07:00,68.1,65.7,30.06,WSW,243,0.0,0.0,92,0.00,,,0.00,0,WeatherCatV1.21B27,2013-08-21 06:07:00,
2013-08-21 02:12:00,68.1,65.7,30.06,WSW,243,0.0,0.0,92,0.00,,,0.00,0,WeatherCatV1.21B27,2013-08-21 06:12:00,
2013-08-21 02:17:00,68.1,65.4,30.06,WSW,243,0.0,0.0,91,0.00,,,0.00,0,WeatherCatV1.21B27,2013-08-21 06:17:00,
2013-08-21 02:22:00,68.1,65.4,30.06,WSW,243,0.0,0.0,91,0.00,,,0.00,0,WeatherCatV1.21B27,2013-08-21 06:22:00,
2013-08-21 02:27:00,67.9,65.2,30.06,WSW,243,0.0,0.0,91,0.00,,,0.00,0,WeatherCatV1.21B27,2013-08-21 06:27:00,
2013-08-21 02:32:00,67.8,65.1,30.06,WSW,243,0.0,0.0,91,0.00,,,0.00,0,WeatherCatV1.21B27,2013-08-21 06:32:00,
2013-08-21 02:37:00,67.6,65.2,30.06,WSW,250,0.0,0.0,92,0.00,,,0.00,0,WeatherCatV1.21B27,2013-08-21 06:37:00,
2013-08-21 02:42:00,67.6,65.2,30.06,WSW,250,0.0,0.0,92,0.00,,,0.00,0,WeatherCatV1.21B27,2013-08-21 06:42:00,
2013-08-21 02:47:00,67.6,64.9,30.06,WSW,250,0.0,0.0,91,0.00,,,0.00,0,WeatherCatV1.21B27,2013-08-21 06:47:00,
2013-08-21 02:52:00,67.6,64.9,30.06,WSW,250,0.0,0.0,91,0.00,,,0.00,0,WeatherCatV1.21B27,2013-08-21 06:52:00,
2013-08-21 02:57:00,67.8,65.1,30.06,WSW,250,0.0,0.0,91,0.00,,,0.00,0,WeatherCatV1.21B27,2013-08-21 06:57:00,
2013-08-21 03:03:00,67.9,65.2,30.06,WSW,250,0.0,0.0,91,0.00,,,0.00,0,WeatherCatV1.21B27,2013-08-21 07:03:00,
2013-08-21 03:08:00,67.8,65.4,30.06,WSW,250,0.0,0.0,92,0.00,,,0.00,0,WeatherCatV1.21B27,2013-08-21 07:08:00,
2013-08-21 03:13:00,67.6,65.5,30.06,WSW,250,0.0,0.0,93,0.00,,,0.00,0,WeatherCatV1.21B27,2013-08-21 07:13:00,
2013-08-21 03:18:00,67.6,65.8,30.06,WSW,250,0.0,0.0,94,0.00,,,0.00,0,WeatherCatV1.21B27,2013-08-21 07:18:00,
2013-08-21 03:23:00,67.6,65.8,30.06,WSW,250,0.0,0.0,94,0.00,,,0.00,0,WeatherCatV1.21B27,2013-08-21 07:23:00,
2013-08-21 03:28:00,67.8,65.7,30.06,WSW,250,0.0,0.0,93,0.00,,,0.00,0,WeatherCatV1.21B27,2013-08-21 07:28:00,
2013-08-21 03:33:00,67.8,65.7,30.06,WSW,250,0.0,0.0,93,0.00,,,0.00,0,WeatherCatV1.21B27,2013-08-21 07:33:00,
2013-08-21 03:38:00,67.3,65.8,30.06,WSW,250,0.0,0.0,95,0.00,,,0.00,0,WeatherCatV1.21B27,2013-08-21 07:38:00,
2013-08-21 03:43:00,66.9,65.7,30.06,WSW,250,0.0,0.0,96,0.00,,,0.00,0,WeatherCatV1.21B27,2013-08-21 07:43:00,
2013-08-21 03:48:00,66.6,65.1,30.06,WSW,250,0.0,0.0,95,0.00,,,0.00,0,WeatherCatV1.21B27,2013-08-21 07:48:00,
2013-08-21 03:53:00,66.4,65.2,30.06,WSW,250,0.0,0.0,96,0.00,,,0.00,0,WeatherCatV1.21B27,2013-08-21 07:53:00,
2013-08-21 03:58:00,66.4,65.2,30.06,WSW,250,0.0,0.0,96,0.00,,,0.00,0,WeatherCatV1.21B27,2013-08-21 07:58:00,
2013-08-21 04:03:00,66.3,64.8,30.06,WSW,250,0.0,0.0,95,0.00,,,0.00,0,WeatherCatV1.21B27,2013-08-21 08:03:00,
2013-08-21 04:08:00,66.3,64.5,30.06,WSW,250,0.0,0.0,94,0.00,,,0.00,0,WeatherCatV1.21B27,2013-08-21 08:08:00,
2013-08-21 04:13:00,66.3,64.5,30.06,WSW,250,0.0,0.0,94,0.00,,,0.00,0,WeatherCatV1.21B27,2013-08-21 08:13:00,
2013-08-21 04:18:00,66.3,64.5,30.06,WSW,250,0.0,0.0,94,0.00,,,0.00,0,WeatherCatV1.21B27,2013-08-21 08:18:00,
2013-08-21 04:23:00,66.3,64.5,30.06,WSW,250,0.0,0.0,94,0.00,,,0.00,0,WeatherCatV1.21B27,2013-08-21 08:23:00,
2013-08-21 04:28:00,66.3,64.5,30.06,WSW,250,0.0,0.0,94,0.00,,,0.00,0,WeatherCatV1.21B27,2013-08-21 08:28:00,
2013-08-21 04:33:00,66.3,64.5,30.06,WSW,250,0.0,0.0,94,0.00,,,0.00,0,WeatherCatV1.21B27,2013-08-21 08:33:00,
2013-08-21 04:38:00,66.4,64.6,30.06,WSW,250,0.0,0.0,94,0.00,,,0.00,0,WeatherCatV1.21B27,2013-08-21 08:38:00,
2013-08-21 04:43:00,66.4,65.2,30.06,WSW,250,0.0,0.0,96,0.00,,,0.00,0,WeatherCatV1.21B27,2013-08-21 08:43:00,
2013-08-21 04:48:00,66.4,65.5,30.06,WSW,250,0.0,0.0,97,0.00,,,0.00,0,WeatherCatV1.21B27,2013-08-21 08:48:00,
2013-08-21 04:53:00,66.4,65.5,30.06,WSW,250,0.0,0.0,97,0.00,,,0.00,0,WeatherCatV1.21B27,2013-08-21 08:53:00,
2013-08-21 04:58:00,66.6,66.3,30.06,WSW,250,0.0,0.0,99,0.00,,,0.00,0,WeatherCatV1.21B27,2013-08-21 08:58:00,
2013-08-21 05:03:00,66.3,65.1,30.06,WSW,250,0.0,0.0,96,0.00,,,0.00,0,WeatherCatV1.21B27,2013-08-21 09:03:00,
2013-08-21 05:08:00,66.1,64.6,30.06,WSW,250,0.0,0.0,95,0.00,,,0.00,0,WeatherCatV1.21B27,2013-08-21 09:08:00,
2013-08-21 05:13:00,66.0,64.2,30.06,WSW,250,0.0,0.0,94,0.00,,,0.00,0,WeatherCatV1.21B27,2013-08-21 09:13:00,
2013-08-21 05:18:00,66.0,64.2,30.07,WSW,250,0.0,0.0,94,0.00,,,0.00,0,WeatherCatV1.21B27,2013-08-21 09:18:00,
2013-08-21 05:23:00,66.1,64.3,30.07,WSW,250,0.0,0.0,94,0.00,,,0.00,0,WeatherCatV1.21B27,2013-08-21 09:23:00,
2013-08-21 05:28:00,66.1,64.6,30.07,WSW,250,0.0,0.0,95,0.00,,,0.00,0,WeatherCatV1.21B27,2013-08-21 09:28:00,
2013-08-21 05:33:00,65.8,64.9,30.07,WSW,250,0.0,0.0,97,0.00,,,0.00,0,WeatherCatV1.21B27,2013-08-21 09:33:00,
2013-08-21 05:38:00,65.5,64.9,30.07,WSW,250,0.0,0.0,98,0.00,,,0.00,0,WeatherCatV1.21B27,2013-08-21 09:38:00,
2013-08-21 05:43:00,65.5,65.2,30.07,WSW,250,0.0,0.0,99,0.00,,,0.00,0,WeatherCatV1.21B27,2013-08-21 09:43:00,
2013-08-21 05:48:00,65.5,65.2,30.07,WSW,250,0.0,0.0,99,0.00,,,0.00,0,WeatherCatV1.21B27,2013-08-21 09:48:00,
2013-08-21 05:53:00,65.5,64.9,30.07,WSW,250,0.0,0.0,98,0.00,,,0.00,0,WeatherCatV1.21B27,2013-08-21 09:53:00,
2013-08-21 05:58:00,65.5,64.6,30.07,WSW,250,0.0,0.0,97,0.00,,,0.00,0,WeatherCatV1.21B27,2013-08-21 09:58:00,
2013-08-21 06:03:00,65.5,64.6,30.07,WSW,250,0.0,0.0,97,0.00,,,0.00,0,WeatherCatV1.21B27,2013-08-21 10:03:00,
2013-08-21 06:08:00,65.5,64.3,30.07,WSW,250,0.0,0.0,96,0.00,,,0.00,0,WeatherCatV1.21B27,2013-08-21 10:08:00,
2013-08-21 06:13:00,65.6,64.4,30.07,WSW,250,0.0,0.0,96,0.00,,,0.00,0,WeatherCatV1.21B27,2013-08-21 10:13:00,
2013-08-21 06:18:00,65.5,64.0,30.08,WSW,250,0.0,0.0,95,0.00,,,0.00,0,WeatherCatV1.21B27,2013-08-21 10:18:00,
2013-08-21 06:23:00,65.3,63.8,30.08,WSW,250,0.0,0.0,95,0.00,,,0.00,0,WeatherCatV1.21B27,2013-08-21 10:23:00,
2013-08-21 06:28:00,65.3,63.8,30.08,WSW,250,0.0,0.0,95,0.00,,,0.00,7,WeatherCatV1.21B27,2013-08-21 10:28:00,
2013-08-21 06:33:00,65.3,63.5,30.08,WSW,250,0.0,0.0,94,0.00,,,0.00,7,WeatherCatV1.21B27,2013-08-21 10:33:00,
2013-08-21 06:38:00,65.6,63.5,30.08,WSW,250,0.0,0.0,93,0.00,,,0.00,11,WeatherCatV1.21B27,2013-08-21 10:38:00,
2013-08-21 06:43:00,65.5,63.4,30.08,WSW,251,0.0,0.0,93,0.00,,,0.00,14,WeatherCatV1.21B27,2013-08-21 10:43:00,
2013-08-21 06:48:00,65.5,63.4,30.09,WSW,251,0.0,0.0,93,0.00,,,0.00,16,WeatherCatV1.21B27,2013-08-21 10:48:00,
2013-08-21 06:53:00,65.3,63.5,30.09,WSW,251,0.0,0.0,94,0.00,,,0.00,19,WeatherCatV1.21B27,2013-08-21 10:53:00,
2013-08-21 06:58:00,65.3,63.5,30.09,WSW,251,0.0,0.0,94,0.00,,,0.00,25,WeatherCatV1.21B27,2013-08-21 10:58:00,
2013-08-21 07:03:00,65.5,64.0,30.09,WSW,251,0.0,0.0,95,0.00,,,0.00,33,WeatherCatV1.21B27,2013-08-21 11:03:00,
2013-08-21 07:08:00,65.5,63.7,30.09,WSW,251,0.0,0.0,94,0.00,,,0.00,33,WeatherCatV1.21B27,2013-08-21 11:08:00,
2013-08-21 07:13:00,65.6,63.8,30.09,WSW,251,0.0,0.0,94,0.00,,,0.00,44,WeatherCatV1.21B27,2013-08-21 11:13:00,
2013-08-21 07:19:00,66.0,64.2,30.10,West,261,0.0,0.0,94,0.00,,,0.00,81,WeatherCatV1.21B27,2013-08-21 11:19:00,
2013-08-21 07:24:00,66.3,64.2,30.10,West,261,0.0,0.0,93,0.00,,,0.00,95,WeatherCatV1.21B27,2013-08-21 11:24:00,
2013-08-21 07:29:00,66.8,65.3,30.10,West,263,0.0,0.0,95,0.00,,,0.00,120,WeatherCatV1.21B27,2013-08-21 11:29:00,
2013-08-21 07:34:00,66.9,65.1,30.10,West,263,0.0,0.0,94,0.00,,,0.00,120,WeatherCatV1.21B27,2013-08-21 11:34:00,
2013-08-21 07:39:00,67.3,64.9,30.10,West,263,0.0,0.0,92,0.00,,,0.00,118,WeatherCatV1.21B27,2013-08-21 11:39:00,
2013-08-21 07:44:00,67.3,64.6,30.10,West,263,0.0,0.0,91,0.00,,,0.00,127,WeatherCatV1.21B27,2013-08-21 11:44:00,
2013-08-21 07:49:00,67.6,64.6,30.10,West,263,0.0,0.0,90,0.00,,,0.00,176,WeatherCatV1.21B27,2013-08-21 11:49:00,
2013-08-21 07:54:00,67.9,64.8,30.10,West,263,0.0,0.0,90,0.00,,,0.00,199,WeatherCatV1.21B27,2013-08-21 11:54:00,
2013-08-21 07:59:00,68.4,65.3,30.10,West,264,0.0,1.0,90,0.00,,,0.00,187,WeatherCatV1.21B27,2013-08-21 11:59:00,
2013-08-21 08:04:00,68.6,65.2,30.10,West,267,0.0,1.0,89,0.00,,,0.00,88,WeatherCatV1.21B27,2013-08-21 12:04:00,
2013-08-21 08:09:00,68.9,65.2,30.10,West,267,0.0,0.0,88,0.00,,,0.00,208,WeatherCatV1.21B27,2013-08-21 12:09:00,
2013-08-21 08:14:00,69.1,65.4,30.10,West,267,0.0,0.0,88,0.00,,,0.00,223,WeatherCatV1.21B27,2013-08-21 12:14:00,
2013-08-21 08:19:00,69.4,65.3,30.10,North,350,0.0,0.0,87,0.00,,,0.00,257,WeatherCatV1.21B27,2013-08-21 12:19:00,
2013-08-21 08:24:00,69.8,65.4,30.10,NNW,340,0.0,0.0,86,0.00,,,0.00,259,WeatherCatV1.21B27,2013-08-21 12:24:00,
2013-08-21 08:29:00,70.1,66.0,30.10,NNW,340,0.0,0.0,87,0.00,,,0.00,278,WeatherCatV1.21B27,2013-08-21 12:29:00,
2013-08-21 08:34:00,70.4,66.3,30.10,NNW,340,0.0,0.0,87,0.00,,,0.00,292,WeatherCatV1.21B27,2013-08-21 12:34:00,
2013-08-21 08:39:00,71.5,67.1,30.10,NNW,340,0.0,0.0,86,0.00,,,0.00,310,WeatherCatV1.21B27,2013-08-21 12:39:00,
2013-08-21 08:44:00,72.0,66.9,30.11,NNW,340,0.0,0.0,84,0.00,,,0.00,327,WeatherCatV1.21B27,2013-08-21 12:44:00,
2013-08-21 08:49:00,72.1,66.6,30.11,NNW,340,0.0,0.0,83,0.00,,,0.00,340,WeatherCatV1.21B27,2013-08-21 12:49:00,
2013-08-21 08:54:00,72.8,66.3,30.11,NNW,340,0.0,0.0,80,0.00,,,0.00,350,WeatherCatV1.21B27,2013-08-21 12:54:00,
2013-08-21 08:59:00,74.0,67.1,30.11,NNW,340,0.0,0.0,79,0.00,,,0.00,362,WeatherCatV1.21B27,2013-08-21 12:59:00,
2013-08-21 09:04:00,74.7,66.6,30.11,NNW,340,0.0,0.0,76,0.00,,,0.00,380,WeatherCatV1.21B27,2013-08-21 13:04:00,
2013-08-21 09:09:00,76.0,67.5,30.11,NNW,340,0.0,0.0,75,0.00,,,0.00,399,WeatherCatV1.21B27,2013-08-21 13:09:00,
2013-08-21 09:14:00,76.8,67.9,30.10,NNW,340,0.0,0.0,74,0.00,,,0.00,417,WeatherCatV1.21B27,2013-08-21 13:14:00,
2013-08-21 09:19:00,76.7,67.4,30.10,NNW,340,0.0,1.0,73,0.00,,,0.00,445,WeatherCatV1.21B27,2013-08-21 13:19:00,
2013-08-21 09:24:00,76.3,67.0,30.10,NNW,340,0.0,0.0,73,0.00,,,0.00,422,WeatherCatV1.21B27,2013-08-21 13:24:00,
2013-08-21 09:29:00,77.2,67.9,30.10,NNW,344,0.0,0.0,73,0.00,,,0.00,447,WeatherCatV1.21B27,2013-08-21 13:29:00,
2013-08-21 09:34:00,77.9,67.7,30.10,ENE,72,0.0,0.0,71,0.00,,,0.00,450,WeatherCatV1.21B27,2013-08-21 13:34:00,
2013-08-21 09:39:00,78.5,67.9,30.10,ENE,72,0.0,0.0,70,0.00,,,0.00,498,WeatherCatV1.21B27,2013-08-21 13:39:00,
2013-08-21 09:44:00,79.0,67.9,30.09,ENE,72,0.0,0.0,69,0.00,,,0.00,489,WeatherCatV1.21B27,2013-08-21 13:44:00,
2013-08-21 09:49:00,79.4,68.3,30.09,ENE,73,2.0,2.0,69,0.00,,,0.00,514,WeatherCatV1.21B27,2013-08-21 13:49:00,
2013-08-21 09:54:00,79.6,68.5,30.09,ENE,73,0.0,0.0,69,0.00,,,0.00,554,WeatherCatV1.21B27,2013-08-21 13:54:00,
2013-08-21 09:59:00,80.1,69.0,30.09,ENE,73,0.0,0.0,69,0.00,,,0.00,540,WeatherCatV1.21B27,2013-08-21 13:59:00,
2013-08-21 10:04:00,80.3,69.2,30.09,ENE,73,0.0,0.0,69,0.00,,,0.00,517,WeatherCatV1.21B27,2013-08-21 14:04:00,
2013-08-21 10:09:00,81.2,69.2,30.09,East,89,0.0,1.0,67,0.00,,,0.00,540,WeatherCatV1.21B27,2013-08-21 14:09:00,
2013-08-21 10:14:00,82.4,69.4,30.09,East,90,0.0,3.0,65,0.00,,,0.00,584,WeatherCatV1.21B27,2013-08-21 14:14:00,
2013-08-21 10:19:00,82.8,69.8,30.09,South,191,2.0,5.0,65,0.00,,,0.00,489,WeatherCatV1.21B27,2013-08-21 14:19:00,
2013-08-21 10:24:00,83.8,70.3,30.09,South,191,0.0,2.0,64,0.00,,,0.00,523,WeatherCatV1.21B27,2013-08-21 14:24:00,
2013-08-21 10:29:00,84.0,70.9,30.09,South,176,0.0,1.0,65,0.00,,,0.00,600,WeatherCatV1.21B27,2013-08-21 14:29:00,
2013-08-21 10:34:00,84.3,71.2,30.09,SSW,200,2.0,3.0,65,0.00,,,0.00,609,WeatherCatV1.21B27,2013-08-21 14:34:00,
2013-08-21 10:39:00,83.6,71.4,30.09,South,171,4.0,7.0,67,0.00,,,0.00,655,WeatherCatV1.21B27,2013-08-21 14:39:00,
2013-08-21 10:44:00,83.6,71.4,30.09,SW,217,2.0,7.0,67,0.00,,,0.00,648,WeatherCatV1.21B27,2013-08-21 14:44:00,
2013-08-21 10:49:00,84.0,71.4,30.09,South,184,0.0,5.0,66,0.00,,,0.00,676,WeatherCatV1.21B27,2013-08-21 14:49:00,
2013-08-21 10:54:00,84.3,72.6,30.09,SSW,202,7.0,7.0,68,0.00,,,0.00,630,WeatherCatV1.21B27,2013-08-21 14:54:00,
2013-08-21 10:59:00,84.1,71.0,30.09,SW,222,7.0,7.0,65,0.00,,,0.00,667,WeatherCatV1.21B27,2013-08-21 14:59:00,
2013-08-21 11:04:00,84.3,71.2,30.09,SSW,206,7.0,10.0,65,0.00,,,0.00,669,WeatherCatV1.21B27,2013-08-21 15:04:00,
2013-08-21 11:09:00,84.7,71.1,30.09,WSW,239,3.0,6.0,64,0.00,,,0.00,700,WeatherCatV1.21B27,2013-08-21 15:09:00,
2013-08-21 11:14:00,84.7,72.1,30.09,SW,216,0.0,3.0,66,0.00,,,0.00,512,WeatherCatV1.21B27,2013-08-21 15:14:00,
2013-08-21 11:20:00,85.5,71.9,30.09,WSW,250,2.0,4.0,64,0.00,,,0.00,669,WeatherCatV1.21B27,2013-08-21 15:20:00,
2013-08-21 11:25:00,85.5,71.9,30.09,SSE,162,0.0,2.0,64,0.00,,,0.00,686,WeatherCatV1.21B27,2013-08-21 15:25:00,
2013-08-21 11:30:00,86.1,72.0,30.09,SSW,213,0.0,3.0,63,0.00,,,0.00,790,WeatherCatV1.21B27,2013-08-21 15:30:00,
2013-08-21 11:35:00,86.1,72.0,30.09,SSW,193,4.0,7.0,63,0.00,,,0.00,721,WeatherCatV1.21B27,2013-08-21 15:35:00,
2013-08-21 11:40:00,86.5,72.4,30.09,South,189,3.0,7.0,63,0.00,,,0.00,658,WeatherCatV1.21B27,2013-08-21 15:40:00,
2013-08-21 11:45:00,86.5,71.9,30.08,SSE,164,2.0,6.0,62,0.00,,,0.00,778,WeatherCatV1.21B27,2013-08-21 15:45:00,
2013-08-21 11:50:00,86.1,71.5,30.08,SSW,198,2.0,7.0,62,0.00,,,0.00,864,WeatherCatV1.21B27,2013-08-21 15:50:00,
2013-08-21 11:55:00,86.1,72.0,30.08,SSW,209,2.0,3.0,63,0.00,,,0.00,704,WeatherCatV1.21B27,2013-08-21 15:55:00,
2013-08-21 12:00:00,86.7,71.6,30.08,South,189,1.0,7.0,61,0.00,,,0.00,677,WeatherCatV1.21B27,2013-08-21 16:00:00,
2013-08-21 12:05:00,86.3,70.7,30.08,SSW,208,2.0,6.0,60,0.00,,,0.00,679,WeatherCatV1.21B27,2013-08-21 16:05:00,
2013-08-21 12:10:00,86.5,71.9,30.08,SSW,206,2.0,3.0,62,0.00,,,0.00,640,WeatherCatV1.21B27,2013-08-21 16:10:00,
2013-08-21 12:15:00,86.3,72.7,30.08,South,186,5.0,10.0,64,0.00,,,0.00,582,WeatherCatV1.21B27,2013-08-21 16:15:00,
2013-08-21 12:20:00,85.3,72.2,30.08,SSE,168,2.0,3.0,65,0.00,,,0.00,516,WeatherCatV1.21B27,2013-08-21 16:20:00,
2013-08-21 12:25:00,85.1,72.0,30.08,South,171,5.0,6.0,65,0.00,,,0.00,568,WeatherCatV1.21B27,2013-08-21 16:25:00,
2013-08-21 12:30:00,85.9,70.4,30.08,South,184,0.0,7.0,60,0.00,,,0.00,649,WeatherCatV1.21B27,2013-08-21 16:30:00,
2013-08-21 12:35:00,86.7,72.6,30.08,SSE,168,4.0,7.0,63,0.00,,,0.00,614,WeatherCatV1.21B27,2013-08-21 16:35:00,
2013-08-21 12:40:00,85.9,71.8,30.08,South,182,0.0,2.0,63,0.00,,,0.00,348,WeatherCatV1.21B27,2013-08-21 16:40:00,
2013-08-21 12:45:00,86.7,72.1,30.08,SSW,200,0.0,6.0,62,0.00,,,0.00,806,WeatherCatV1.21B27,2013-08-21 16:45:00,
2013-08-21 12:50:00,87.2,72.1,30.08,SW,230,3.0,6.0,61,0.00,,,0.00,820,WeatherCatV1.21B27,2013-08-21 16:50:00,
2013-08-21 12:55:00,87.4,72.3,30.08,SW,233,2.0,6.0,61,0.00,,,0.00,913,WeatherCatV1.21B27,2013-08-21 16:55:00,
2013-08-21 13:00:00,88.2,72.5,30.07,SW,222,0.0,7.0,60,0.00,,,0.00,904,WeatherCatV1.21B27,2013-08-21 17:00:00,
2013-08-21 13:05:00,87.4,72.3,30.07,South,185,5.0,7.0,61,0.00,,,0.00,660,WeatherCatV1.21B27,2013-08-21 17:05:00,
2013-08-21 13:10:00,87.4,72.8,30.07,SSW,200,2.0,5.0,62,0.00,,,0.00,287,WeatherCatV1.21B27,2013-08-21 17:10:00,
2013-08-21 13:15:00,87.6,72.0,30.06,SW,232,4.0,6.0,60,0.00,,,0.00,954,WeatherCatV1.21B27,2013-08-21 17:15:00,
2013-08-21 13:20:00,88.2,73.0,30.06,SSW,205,0.0,2.0,61,0.00,,,0.00,827,WeatherCatV1.21B27,2013-08-21 17:20:00,
2013-08-21 13:25:00,88.2,72.5,30.06,SSW,212,0.0,5.0,60,0.00,,,0.00,948,WeatherCatV1.21B27,2013-08-21 17:25:00,
2013-08-21 13:30:00,87.4,72.3,30.06,South,184,1.0,8.0,61,0.00,,,0.00,303,WeatherCatV1.21B27,2013-08-21 17:30:00,
2013-08-21 13:35:00,88.0,71.8,30.06,SSW,196,2.0,8.0,59,0.00,,,0.00,962,WeatherCatV1.21B27,2013-08-21 17:35:00,
2013-08-21 13:40:00,88.2,71.5,30.06,South,184,6.0,7.0,58,0.00,,,0.00,996,WeatherCatV1.21B27,2013-08-21 17:40:00,
2013-08-21 13:45:00,88.0,72.3,30.06,SSW,192,7.0,8.0,60,0.00,,,0.00,996,WeatherCatV1.21B27,2013-08-21 17:45:00,
2013-08-21 13:50:00,88.0,71.8,30.06,South,171,0.0,3.0,59,0.00,,,0.00,313,WeatherCatV1.21B27,2013-08-21 17:50:00,
2013-08-21 13:55:00,87.6,72.9,30.06,South,182,5.0,8.0,62,0.00,,,0.00,419,WeatherCatV1.21B27,2013-08-21 17:55:00,
2013-08-21 14:00:00,87.8,72.2,30.05,WSW,237,5.0,6.0,60,0.00,,,0.00,419,WeatherCatV1.21B27,2013-08-21 18:00:00,
2013-08-21 14:05:00,88.6,73.4,30.05,WSW,248,3.0,8.0,61,0.00,,,0.00,945,WeatherCatV1.21B27,2013-08-21 18:05:00,
2013-08-21 14:10:00,88.0,71.8,30.05,South,169,3.0,8.0,59,0.00,,,0.00,945,WeatherCatV1.21B27,2013-08-21 18:10:00,
2013-08-21 14:15:00,87.6,72.0,30.04,SSE,168,5.0,9.0,60,0.00,,,0.00,289,WeatherCatV1.21B27,2013-08-21 18:15:00,
2013-08-21 14:20:00,87.2,72.1,30.04,SSE,158,1.0,6.0,61,0.00,,,0.00,549,WeatherCatV1.21B27,2013-08-21 18:20:00,
2013-08-21 14:25:00,87.2,72.1,30.04,SSW,199,2.0,8.0,61,0.00,,,0.00,582,WeatherCatV1.21B27,2013-08-21 18:25:00,
2013-08-21 14:30:00,87.2,72.6,30.03,SSE,152,3.0,7.0,62,0.00,,,0.00,757,WeatherCatV1.21B27,2013-08-21 18:30:00,
2013-08-21 14:35:00,88.0,71.3,30.03,SSW,200,1.0,8.0,58,0.00,,,0.00,711,WeatherCatV1.21B27,2013-08-21 18:35:00,
2013-08-21 14:40:00,87.4,70.8,30.03,SW,219,2.0,8.0,58,0.00,,,0.00,700,WeatherCatV1.21B27,2013-08-21 18:40:00,
2013-08-21 14:45:00,88.0,70.8,30.03,SSW,208,4.0,8.0,57,0.00,,,0.00,326,WeatherCatV1.21B27,2013-08-21 18:45:00,
2013-08-21 14:50:00,88.0,70.8,30.03,SSW,192,5.0,8.0,57,0.00,,,0.00,697,WeatherCatV1.21B27,2013-08-21 18:50:00,
2013-08-21 14:55:00,87.8,69.6,30.03,SW,219,2.0,10.0,55,0.00,,,0.00,728,WeatherCatV1.21B27,2013-08-21 18:55:00,
2013-08-21 15:00:00,88.6,71.9,30.01,SSW,193,3.0,8.0,58,0.00,,,0.00,735,WeatherCatV1.21B27,2013-08-21 19:00:00,
2013-08-21 15:06:00,89.3,69.9,30.01,SW,230,1.0,5.0,53,0.00,,,0.00,658,WeatherCatV1.21B27,2013-08-21 19:06:00,
2013-08-21 15:11:00,89.5,71.2,30.01,SSW,192,8.0,11.0,55,0.00,,,0.00,648,WeatherCatV1.21B27,2013-08-21 19:11:00,
2013-08-21 15:16:00,89.7,70.2,30.01,South,184,3.0,8.0,53,0.00,,,0.00,218,WeatherCatV1.21B27,2013-08-21 19:16:00,
2013-08-21 15:21:00,89.0,70.7,30.01,South,179,7.0,8.0,55,0.00,,,0.00,804,WeatherCatV1.21B27,2013-08-21 19:21:00,
2013-08-21 15:26:00,88.8,70.5,30.01,South,169,1.0,8.0,55,0.00,,,0.00,690,WeatherCatV1.21B27,2013-08-21 19:26:00,
2013-08-21 15:31:00,88.8,70.0,30.01,SSW,196,2.0,5.0,54,0.00,,,0.00,252,WeatherCatV1.21B27,2013-08-21 19:31:00,
2013-08-21 15:36:00,88.2,70.5,30.01,South,169,3.0,12.0,56,0.00,,,0.00,252,WeatherCatV1.21B27,2013-08-21 19:36:00,
2013-08-21 15:41:00,88.2,70.5,30.01,SSE,165,3.0,7.0,56,0.00,,,0.00,252,WeatherCatV1.21B27,2013-08-21 19:41:00,
2013-08-21 15:46:00,88.6,69.2,30.01,SSW,198,2.0,8.0,53,0.00,,,0.00,549,WeatherCatV1.21B27,2013-08-21 19:46:00,
2013-08-21 15:51:00,88.6,70.9,30.01,SSE,167,2.0,4.0,56,0.00,,,0.00,640,WeatherCatV1.21B27,2013-08-21 19:51:00,
2013-08-21 15:56:00,88.6,69.2,30.01,SSE,162,0.0,6.0,53,0.00,,,0.00,523,WeatherCatV1.21B27,2013-08-21 19:56:00,
2013-08-21 16:01:00,88.6,68.7,30.00,South,179,3.0,8.0,52,0.00,,,0.00,623,WeatherCatV1.21B27,2013-08-21 20:01:00,
2013-08-21 16:06:00,88.4,69.6,30.00,SSE,165,2.0,11.0,54,0.00,,,0.00,660,WeatherCatV1.21B27,2013-08-21 20:06:00,
2013-08-21 16:11:00,87.6,68.9,30.00,South,172,6.0,10.0,54,0.00,,,0.00,454,WeatherCatV1.21B27,2013-08-21 20:11:00,
2013-08-21 16:16:00,87.2,69.6,30.00,South,178,3.0,11.0,56,0.00,,,0.00,239,WeatherCatV1.21B27,2013-08-21 20:16:00,
2013-08-21 16:21:00,86.7,69.1,30.00,SSE,167,3.0,6.0,56,0.00,,,0.00,158,WeatherCatV1.21B27,2013-08-21 20:21:00,
2013-08-21 16:26:00,86.5,68.9,30.00,South,169,8.0,8.0,56,0.00,,,0.00,243,WeatherCatV1.21B27,2013-08-21 20:26:00,
2013-08-21 16:31:00,86.5,68.9,29.99,SSW,199,3.0,6.0,56,0.00,,,0.00,303,WeatherCatV1.21B27,2013-08-21 20:31:00,
2013-08-21 16:36:00,86.5,68.4,29.99,South,176,2.0,7.0,55,0.00,,,0.00,318,WeatherCatV1.21B27,2013-08-21 20:36:00,
2013-08-21 16:41:00,87.0,68.3,29.99,SSE,168,6.0,9.0,54,0.00,,,0.00,347,WeatherCatV1.21B27,2013-08-21 20:41:00,
2013-08-21 16:46:00,87.2,69.0,29.99,South,175,2.0,9.0,55,0.00,,,0.00,355,WeatherCatV1.21B27,2013-08-21 20:46:00,
2013-08-21 16:51:00,87.4,69.2,29.99,SSW,193,2.0,6.0,55,0.00,,,0.00,326,WeatherCatV1.21B27,2013-08-21 20:51:00,
2013-08-21 16:56:00,87.2,69.0,29.99,SSW,203,3.0,10.0,55,0.00,,,0.00,201,WeatherCatV1.21B27,2013-08-21 20:56:00,
2013-08-21 17:01:00,87.4,69.7,29.98,SSW,200,0.0,2.0,56,0.00,,,0.00,209,WeatherCatV1.21B27,2013-08-21 21:01:00,
2013-08-21 17:06:00,87.2,69.6,29.98,SSW,212,4.0,7.0,56,0.00,,,0.00,201,WeatherCatV1.21B27,2013-08-21 21:06:00,
2013-08-21 17:11:00,87.4,70.3,29.98,SW,219,2.0,7.0,57,0.00,,,0.00,202,WeatherCatV1.21B27,2013-08-21 21:11:00,
2013-08-21 17:16:00,87.2,69.6,29.98,SSW,200,2.0,7.0,56,0.00,,,0.00,188,WeatherCatV1.21B27,2013-08-21 21:16:00,
2013-08-21 17:21:00,87.0,69.4,29.98,SW,216,5.0,5.0,56,0.00,,,0.00,185,WeatherCatV1.21B27,2013-08-21 21:21:00,
2013-08-21 17:26:00,87.2,70.1,29.98,SSW,206,0.0,2.0,57,0.00,,,0.00,183,WeatherCatV1.21B27,2013-08-21 21:26:00,
2013-08-21 17:31:00,87.4,69.7,29.98,SSW,208,1.0,5.0,56,0.00,,,0.00,165,WeatherCatV1.21B27,2013-08-21 21:31:00,
2013-08-21 17:36:00,87.0,69.9,29.98,SSW,208,5.0,7.0,57,0.00,,,0.00,141,WeatherCatV1.21B27,2013-08-21 21:36:00,
2013-08-21 17:41:00,86.7,70.6,29.98,SSW,208,0.0,4.0,59,0.00,,,0.00,135,WeatherCatV1.21B27,2013-08-21 21:41:00,
2013-08-21 17:46:00,86.5,71.4,29.98,SSW,209,0.0,0.0,61,0.00,,,0.00,127,WeatherCatV1.21B27,2013-08-21 21:46:00,
2013-08-21 17:51:00,86.7,71.1,29.98,SSW,209,0.0,0.0,60,0.00,,,0.00,111,WeatherCatV1.21B27,2013-08-21 21:51:00,
2013-08-21 17:56:00,86.7,71.1,29.98,SSW,209,0.0,3.0,60,0.00,,,0.00,100,WeatherCatV1.21B27,2013-08-21 21:56:00,
2013-08-21 18:02:00,86.3,71.2,29.98,SSW,196,1.0,5.0,61,0.00,,,0.00,90,WeatherCatV1.21B27,2013-08-21 22:02:00,
2013-08-21 18:07:00,85.9,71.3,29.98,South,189,4.0,6.0,62,0.00,,,0.00,83,WeatherCatV1.21B27,2013-08-21 22:07:00,
2013-08-21 18:12:00,85.5,71.0,29.98,SSE,161,1.0,3.0,62,0.00,,,0.00,74,WeatherCatV1.21B27,2013-08-21 22:12:00,
2013-08-21 18:17:00,85.5,71.4,29.98,SSE,162,0.0,0.0,63,0.00,,,0.00,70,WeatherCatV1.21B27,2013-08-21 22:17:00,
2013-08-21 18:22:00,85.5,71.4,29.98,South,191,5.0,5.0,63,0.00,,,0.00,69,WeatherCatV1.21B27,2013-08-21 22:22:00,
2013-08-21 18:27:00,85.1,72.0,29.98,SSW,195,1.0,5.0,65,0.00,,,0.00,58,WeatherCatV1.21B27,2013-08-21 22:27:00,
2013-08-21 18:32:00,84.9,70.9,29.98,SSW,205,3.0,5.0,63,0.00,,,0.00,49,WeatherCatV1.21B27,2013-08-21 22:32:00,
2013-08-21 18:37:00,84.9,71.3,29.98,SSW,195,0.0,2.0,64,0.00,,,0.00,46,WeatherCatV1.21B27,2013-08-21 22:37:00,
2013-08-21 18:42:00,84.7,71.6,29.98,SSW,195,1.0,3.0,65,0.00,,,0.00,42,WeatherCatV1.21B27,2013-08-21 22:42:00,
2013-08-21 18:47:00,84.5,72.8,29.97,SSW,195,1.0,1.0,68,0.00,,,0.00,39,WeatherCatV1.21B27,2013-08-21 22:47:00,
2013-08-21 18:52:00,84.3,73.0,29.97,SSW,195,0.0,1.0,69,0.00,,,0.00,39,WeatherCatV1.21B27,2013-08-21 22:52:00,
2013-08-21 18:58:00,84.0,73.6,29.97,SSW,195,0.0,0.0,71,0.00,,,0.00,37,WeatherCatV1.21B27,2013-08-21 22:58:00,
2013-08-21 19:03:00,83.6,74.0,29.97,SSW,195,0.0,0.0,73,0.00,,,0.00,42,WeatherCatV1.21B27,2013-08-21 23:03:00,
2013-08-21 19:08:00,83.2,74.0,29.97,SW,233,0.0,0.0,74,0.00,,,0.00,40,WeatherCatV1.21B27,2013-08-21 23:08:00,
2013-08-21 19:13:00,82.8,73.6,29.97,SW,233,0.0,0.0,74,0.00,,,0.00,30,WeatherCatV1.21B27,2013-08-21 23:13:00,
2013-08-21 19:18:00,82.4,74.1,29.97,SW,233,0.0,0.0,76,0.00,,,0.00,21,WeatherCatV1.21B27,2013-08-21 23:18:00,
2013-08-21 19:23:00,82.0,74.1,29.97,SW,233,0.0,0.0,77,0.00,,,0.00,18,WeatherCatV1.21B27,2013-08-21 23:23:00,
2013-08-21 19:28:00,81.6,74.1,29.97,SW,233,0.0,0.0,78,0.00,,,0.00,18,WeatherCatV1.21B27,2013-08-21 23:28:00,
2013-08-21 19:33:00,81.4,73.1,29.97,SW,233,0.0,1.0,76,0.00,,,0.00,19,WeatherCatV1.21B27,2013-08-21 23:33:00,
2013-08-21 19:38:00,81.1,73.2,29.97,SW,233,0.0,0.0,77,0.00,,,0.00,18,WeatherCatV1.21B27,2013-08-21 23:38:00,
2013-08-21 19:43:00,80.7,73.2,29.97,SW,234,1.0,2.0,78,0.00,,,0.00,7,WeatherCatV1.21B27,2013-08-21 23:43:00,
2013-08-21 19:48:00,80.3,72.8,29.97,SW,234,0.0,0.0,78,0.00,,,0.00,5,WeatherCatV1.21B27,2013-08-21 23:48:00,
2013-08-21 19:53:00,80.1,72.6,29.97,SW,234,0.0,0.0,78,0.00,,,0.00,0,WeatherCatV1.21B27,2013-08-21 23:53:00,
2013-08-21 19:58:00,80.1,72.2,29.97,SW,234,0.0,0.0,77,0.00,,,0.00,0,WeatherCatV1.21B27,2013-08-21 23:58:00,
2013-08-21 20:03:00,79.9,72.0,29.98,SW,234,0.0,0.0,77,0.00,,,0.00,0,WeatherCatV1.21B27,2013-08-22 00:03:00,
2013-08-21 20:08:00,79.9,72.0,29.98,SW,234,0.0,0.0,77,0.00,,,0.00,0,WeatherCatV1.21B27,2013-08-22 00:08:00,
2013-08-21 20:13:00,79.9,72.0,29.98,SW,234,0.0,0.0,77,0.00,,,0.00,0,WeatherCatV1.21B27,2013-08-22 00:13:00,
2013-08-21 20:18:00,79.9,72.0,29.98,SW,233,0.0,0.0,77,0.00,,,0.00,0,WeatherCatV1.21B27,2013-08-22 00:18:00,
2013-08-21 20:23:00,79.8,72.3,29.98,SW,234,0.0,0.0,78,0.00,,,0.00,0,WeatherCatV1.21B27,2013-08-22 00:23:00,
2013-08-21 20:28:00,79.6,72.1,29.98,SW,234,0.0,0.0,78,0.00,,,0.00,0,WeatherCatV1.21B27,2013-08-22 00:28:00,
2013-08-21 20:33:00,79.6,72.1,29.98,SW,234,0.0,0.0,78,0.00,,,0.00,0,WeatherCatV1.21B27,2013-08-22 00:33:00,
2013-08-21 20:38:00,79.4,71.5,29.98,SW,230,2.0,5.0,77,0.00,,,0.00,0,WeatherCatV1.21B27,2013-08-22 00:38:00,
2013-08-21 20:43:00,79.0,71.9,29.98,SW,217,2.0,5.0,79,0.00,,,0.00,0,WeatherCatV1.21B27,2013-08-22 00:43:00,
2013-08-21 20:48:00,78.8,71.0,29.98,SSW,209,3.0,3.0,77,0.00,,,0.00,0,WeatherCatV1.21B27,2013-08-22 00:48:00,
2013-08-21 20:53:00,79.0,70.4,29.98,SSW,209,2.0,2.0,75,0.00,,,0.00,0,WeatherCatV1.21B27,2013-08-22 00:53:00,
2013-08-21 20:58:00,79.0,70.8,29.98,SSW,209,1.0,2.0,76,0.00,,,0.00,0,WeatherCatV1.21B27,2013-08-22 00:58:00,
2013-08-21 21:03:00,79.0,70.8,29.99,SSW,210,2.0,3.0,76,0.00,,,0.00,0,WeatherCatV1.21B27,2013-08-22 01:03:00,
2013-08-21 21:08:00,78.8,70.6,29.99,SSW,210,0.0,1.0,76,0.00,,,0.00,0,WeatherCatV1.21B27,2013-08-22 01:08:00,
2013-08-21 21:13:00,78.8,70.6,29.99,SSW,210,0.0,0.0,76,0.00,,,0.00,0,WeatherCatV1.21B27,2013-08-22 01:13:00,
2013-08-21 21:18:00,79.0,70.8,29.98,SSW,210,0.0,0.0,76,0.00,,,0.00,0,WeatherCatV1.21B27,2013-08-22 01:18:00,
2013-08-21 21:23:00,79.0,70.8,29.98,SSW,210,0.0,0.0,76,0.00,,,0.00,0,WeatherCatV1.21B27,2013-08-22 01:23:00,
2013-08-21 21:28:00,79.0,70.8,29.98,SSW,210,0.0,1.0,76,0.00,,,0.00,0,WeatherCatV1.21B27,2013-08-22 01:28:00,
2013-08-21 21:33:00,78.8,70.6,29.98,SSW,210,0.0,0.0,76,0.00,,,0.00,0,WeatherCatV1.21B27,2013-08-22 01:33:00,
2013-08-21 21:38:00,78.5,71.4,29.98,SSW,212,2.0,2.0,79,0.00,,,0.00,0,WeatherCatV1.21B27,2013-08-22 01:38:00,
2013-08-21 21:43:00,78.5,70.7,29.98,WSW,254,2.0,3.0,77,0.00,,,0.00,0,WeatherCatV1.21B27,2013-08-22 01:43:00,
2013-08-21 21:48:00,78.5,70.3,29.98,SW,229,5.0,6.0,76,0.00,,,0.00,0,WeatherCatV1.21B27,2013-08-22 01:48:00,
2013-08-21 21:53:00,78.5,71.1,29.98,West,264,7.0,11.0,78,0.00,,,0.00,0,WeatherCatV1.21B27,2013-08-22 01:53:00,
2013-08-21 21:58:00,78.3,71.2,29.98,WSW,237,7.0,8.0,79,0.00,,,0.00,0,WeatherCatV1.21B27,2013-08-22 01:58:00,
2013-08-21 22:03:00,78.1,71.4,29.98,WSW,253,6.0,7.0,80,0.00,,,0.00,0,WeatherCatV1.21B27,2013-08-22 02:03:00,
2013-08-21 22:08:00,77.9,72.3,29.98,SSW,202,0.0,6.0,83,0.00,,,0.00,0,WeatherCatV1.21B27,2013-08-22 02:08:00,
2013-08-21 22:13:00,77.6,72.4,29.98,SSW,202,3.0,5.0,84,0.00,,,0.00,0,WeatherCatV1.21B27,2013-08-22 02:13:00,
2013-08-21 22:18:00,77.0,72.8,29.98,SSE,168,3.0,11.0,87,0.00,,,0.00,0,WeatherCatV1.21B27,2013-08-22 02:18:00,
2013-08-21 22:23:00,76.7,72.9,29.98,SSW,206,3.0,16.0,88,0.00,,,0.00,0,WeatherCatV1.21B27,2013-08-22 02:23:00,
2013-08-21 22:28:00,76.3,72.1,29.98,SSW,206,2.0,11.0,87,0.00,,,0.00,0,WeatherCatV1.21B27,2013-08-22 02:28:00,
2013-08-21 22:33:00,76.0,72.5,29.98,SSW,210,4.0,7.0,89,0.00,,,0.00,0,WeatherCatV1.21B27,2013-08-22 02:33:00,
2013-08-21 22:38:00,75.8,72.7,29.98,WSW,237,2.0,4.0,90,0.00,,,0.00,0,WeatherCatV1.21B27,2013-08-22 02:38:00,
2013-08-21 22:43:00,75.6,72.1,29.98,SW,236,2.0,3.0,89,0.00,,,0.00,0,WeatherCatV1.21B27,2013-08-22 02:43:00,
2013-08-21 22:48:00,75.4,72.2,29.97,SW,234,0.0,3.0,90,0.00,,,0.00,0,WeatherCatV1.21B27,2013-08-22 02:48:00,
2013-08-21 22:53:00,75.3,72.2,29.97,SW,233,3.0,3.0,90,0.00,,,0.00,0,WeatherCatV1.21B27,2013-08-22 02:53:00,
2013-08-21 22:59:00,75.1,72.0,29.97,SSW,193,1.0,5.0,90,0.00,,,0.00,0,WeatherCatV1.21B27,2013-08-22 02:59:00,
2013-08-21 23:04:00,75.1,72.0,29.97,SSW,193,0.0,2.0,90,0.00,,,0.00,0,WeatherCatV1.21B27,2013-08-22 03:04:00,
2013-08-21 23:09:00,74.9,71.8,29.97,South,191,5.0,7.0,90,0.00,,,0.00,0,WeatherCatV1.21B27,2013-08-22 03:09:00,
2013-08-21 23:14:00,74.7,71.6,29.97,South,186,2.0,5.0,90,0.00,,,0.00,0,WeatherCatV1.21B27,2013-08-22 03:14:00,
2013-08-21 23:19:00,74.6,71.8,29.97,SSW,203,5.0,7.0,91,0.00,,,0.00,0,WeatherCatV1.21B27,2013-08-22 03:19:00,
2013-08-21 23:24:00,74.6,72.1,29.97,South,171,3.0,7.0,92,0.00,,,0.00,0,WeatherCatV1.21B27,2013-08-22 03:24:00,
2013-08-21 23:29:00,74.2,71.7,29.97,South,169,5.0,7.0,92,0.00,,,0.00,0,WeatherCatV1.21B27,2013-08-22 03:29:00,
2013-08-21 23:34:00,74.2,72.4,29.97,South,169,0.0,4.0,94,0.00,,,0.00,0,WeatherCatV1.21B27,2013-08-22 03:34:00,
2013-08-21 23:39:00,73.9,71.7,29.97,SSW,200,3.0,7.0,93,0.00,,,0.00,0,WeatherCatV1.21B27,2013-08-22 03:39:00,
2013-08-21 23:44:00,73.9,72.1,29.96,SSW,199,0.0,2.0,94,0.00,,,0.00,0,WeatherCatV1.21B27,2013-08-22 03:44:00,
2013-08-21 23:49:00,73.7,71.9,29.96,SSW,203,2.0,5.0,94,0.00,,,0.00,0,WeatherCatV1.21B27,2013-08-22 03:49:00,
2013-08-21 23:54:00,73.7,72.2,29.96,SSW,212,0.0,0.0,95,0.00,,,0.00,0,WeatherCatV1.21B27,2013-08-22 03:54:00,
2013-08-21 23:59:00,73.7,72.5,29.96,SW,236,0.0,0.0,96,0.00,,,0.00,0,WeatherCatV1.21B27,2013-08-22 03:59:00,